Portada
METAR-TAF:

METAR-TAF

Aeroports :

Batesville, Arkansas, Estats Units d'Amèrica

latitud: 35-44N, longitud: 091-39W, altitud: 141 m

Observació

L'informe es va fer fa 22 minuts, a les 06:56 UTC
Vent 6 kt amb direcció variable
Temperatura 11°C
Humitat 47%
Pressió 1024 hPa
Visibilitat: 16.1 km
Cel cobert a una alçada de 4400 ft

METAR: KBVX 250656Z AUTO VRB06KT 10SM OVC044 11/00 A3024 RMK AO2 SLP238 T01060000

Hora: 01:18 (07:18 UTC)


TAF: manca

Observacions i pronòstics meteorològics de més de 4000 aeroports (METAR i TAF).

Les estacions disponibles són els punts grocs i vermells al mapa.

Posi el ratolí al punt desitjat per veure el nom de l'estació.

Feu clic per veure les observacions i els pronòstics meteorològics.

Per canviar el mapa: feu clic els botons verds amb una creu de color negre per apropar; al botó verd amb un guió per allunyar la imatge; o en les fletxes verdes per a mapes adjacents.


METAR-TAF: